Location: Anton
(37.3520°N, 87.3947°W)
Time: 00:44:40
(UTC+00:00)

N. Korean satellite - Pass Details

Date: 28 November 2022
Orbit: 407 x 442 km, 97.3° (Epoch: 05 February)

Event Time Altitude Azimuth Distance (km) Brightness Sun altitude
Rises 12:00:03 0° 352° (N) 2,527 9.9 -8.5°
Reaches altitude 10° 12:02:41 10° 330° (NNW) 1,641 8.8 -8.0°
Maximum altitude 12:04:54 16° 291° (WNW) 1,304 8.1 -7.6°
Drops below altitude 10° 12:07:07 10° 252° (WSW) 1,623 8.8 -7.2°
Sets 12:09:43 0° 230° (SW) 2,484 9.9 -6.7°
